Date String (YYYY-MM-DD hh:mm:ss) UTC,Instrument flags,absolute air pressure of the measurement (hPa),sample flow rate (lpm),inlet stack bypass flow (lpm),air temperature of the measurement (°C),ambient temperature measured by the external sensor (°C),aerosol sample conditioner tube jacket temperature (°C),OPC LED temperature (°C),internal box temperature (°C),relative humidity of the measurement (%),span deviation,mass concentration of particles derived from Lorenz-Mie calculation of OPC scattering (μg/m³),mass concentration of particles derived from Lorenz-Mie calculation of OPC scattering (μg/m³),mass concentration of particles derived from Lorenz-Mie calculation of OPC scattering (μg/m³)
DateTimeUTC,F1_M11,P_M11,Q1_M11,Q2_M11,T1_M11,T2_M11,T3_M11,T4_M11,T5_M11,U1_M11,ZSPAN_M11,X2_M11,X0_M11,X1_M11
2024-06-17 04:00:00,SystemResetWarning,0822.7,5.00,000.00,029.0,026.4,000.0,037.7,030.0,032.7,0000.0,0005.96,0023.50,0004.29
2024-06-17 04:01:00,SystemResetWarning,0822.8,5.00,000.00,029.0,026.8,000.0,037.6,030.2,032.7,0000.0,0005.97,0022.69,0004.30
2024-06-17 04:02:00,SystemResetWarning,0822.8,5.00,000.00,029.0,027.2,000.0,037.5,030.5,032.6,0000.0,0005.94,0022.95,0004.29
2024-06-17 04:03:00,SystemResetWarning,0822.8,5.01,000.00,029.0,027.6,000.0,037.5,030.7,032.5,0000.0,0005.99,0023.15,0004.29
2024-06-17 04:04:00,SystemResetWarning,0823.1,5.00,000.00,029.1,027.9,000.0,037.5,030.8,032.4,0000.0,0006.03,0022.21,0004.29
2024-06-17 04:05:00,SystemResetWarning,0823.1,5.00,000.00,029.2,028.2,000.0,037.5,031.0,032.3,0000.0,0006.06,0022.55,0004.31
2024-06-17 04:06:00,SystemResetWarning,0822.7,5.00,000.00,029.3,028.5,000.0,037.5,031.1,032.1,0000.0,0006.09,0022.95,0004.30
2024-06-17 04:07:00,SystemResetWarning,0822.9,5.00,000.00,029.3,028.7,000.0,037.5,031.2,032.0,0000.0,0006.08,0022.53,0004.32
2024-06-17 04:08:00,SystemResetWarning,0823.3,5.00,000.00,029.4,028.8,000.0,037.5,031.3,031.9,0000.0,0006.03,0021.52,0004.31
2024-06-17 04:09:00,SystemResetWarning,0823.3,5.01,000.00,029.5,029.0,000.0,037.6,031.4,031.9,0000.0,0006.01,0021.79,0004.29
2024-06-17 04:10:00,SystemResetWarning,0823.1,5.00,000.00,029.6,029.1,000.0,037.6,031.4,031.7,0000.0,0006.00,0021.28,0004.29
2024-06-17 04:11:00,SystemResetWarning,0823.1,5.00,000.00,029.6,029.2,000.0,037.6,031.5,031.6,0000.0,0005.98,0020.72,0004.28
2024-06-17 04:12:00,SystemResetWarning,0823.3,5.00,000.00,029.7,029.3,000.0,037.7,031.6,031.5,0000.0,0005.95,0021.05,0004.25
2024-06-17 04:13:00,SystemResetWarning,0823.2,4.99,000.00,029.8,029.3,000.0,037.7,031.6,031.3,0000.0,0005.91,0022.13,0004.24
2024-06-17 04:14:00,SystemResetWarning,0822.8,5.00,000.00,029.6,027.6,000.0,037.8,030.8,031.4,0000.0,0005.82,0022.57,0004.22
2024-06-17 04:15:00,SystemResetWarning,0822.7,5.01,000.00,029.3,026.3,000.0,037.9,030.1,032.1,0000.0,0005.82,0023.86,0004.21
2024-06-17 04:16:00,SystemResetWarning,0822.8,5.01,000.00,029.1,026.4,000.0,037.8,030.1,032.5,0000.0,0005.80,0025.46,0004.18
2024-06-17 04:17:00,SystemResetWarning,0823.1,4.99,000.00,029.1,026.8,000.0,037.7,030.3,032.6,0000.0,0005.74,0024.90,0004.17
2024-06-17 04:18:00,SystemResetWarning,0823.0,5.00,000.00,029.1,027.3,000.0,037.6,030.6,032.5,0000.0,0005.75,0025.29,0004.17
2024-06-17 04:19:00,SystemResetWarning,0822.9,5.00,000.00,029.1,027.6,000.0,037.6,030.8,032.5,0000.0,0005.77,0025.03,0004.18
2024-06-17 04:20:00,SystemResetWarning,0822.9,4.99,000.00,029.2,028.0,000.0,037.6,030.9,032.3,0000.0,0005.76,0024.46,0004.19
2024-06-17 04:21:00,SystemResetWarning,0822.9,5.00,000.00,029.3,028.3,000.0,037.6,031.1,032.3,0000.0,0005.72,0024.51,0004.19
2024-06-17 04:22:00,SystemResetWarning,0823.0,5.00,000.00,029.3,028.5,000.0,037.6,031.2,032.2,0000.0,0005.68,0023.16,0004.17
2024-06-17 04:23:00,SystemResetWarning,0823.1,4.99,000.00,029.4,028.7,000.0,037.6,031.3,032.0,0000.0,0005.70,0022.12,0004.18
2024-06-17 04:24:00,SystemResetWarning,0822.9,5.00,000.00,029.5,028.9,000.0,037.7,031.3,031.8,0000.0,0005.70,0020.78,0004.18
2024-06-17 04:25:00,SystemResetWarning,0823.0,5.00,000.00,029.6,029.0,000.0,037.7,031.4,031.7,0000.0,0005.69,0020.56,0004.18
2024-06-17 04:26:00,SystemResetWarning,0823.0,5.00,000.00,029.6,029.2,000.0,037.7,031.5,031.8,0000.0,0005.63,0018.90,0004.18
2024-06-17 04:27:00,SystemResetWarning,0823.1,5.00,000.00,029.7,029.3,000.0,037.8,031.6,031.6,0000.0,0005.64,0017.22,0004.21
2024-06-17 04:28:00,SystemResetWarning,0822.8,5.00,000.00,029.8,029.4,000.0,037.8,031.7,031.4,0000.0,0005.65,0016.22,0004.22
2024-06-17 04:29:00,SystemResetWarning,0823.2,4.99,000.00,029.8,028.7,000.0,037.9,031.3,031.7,0000.0,0005.64,0015.96,0004.20
2024-06-17 04:30:00,SystemResetWarning,0822.8,5.01,000.00,029.4,026.7,000.0,037.9,030.3,032.6,0000.0,0005.65,0016.11,0004.21
2024-06-17 04:31:00,SystemResetWarning,0822.7,5.01,000.00,029.2,026.4,000.0,037.9,030.1,032.7,0000.0,0005.67,0016.12,0004.21
2024-06-17 04:32:00,SystemResetWarning,0822.7,4.99,000.00,029.1,026.8,000.0,037.8,030.3,032.7,0000.0,0005.66,0015.92,0004.21
2024-06-17 04:33:00,SystemResetWarning,0822.8,4.99,000.00,029.1,027.2,000.0,037.7,030.5,032.9,0000.0,0005.70,0016.88,0004.23
2024-06-17 04:34:00,SystemResetWarning,0822.8,5.01,000.00,029.2,027.5,000.0,037.7,030.7,033.2,0000.0,0005.69,0017.23,0004.23
2024-06-17 04:35:00,SystemResetWarning,0822.8,4.99,000.00,029.2,027.9,000.0,037.7,030.9,033.2,0000.0,0005.74,0016.97,0004.26
2024-06-17 04:36:00,SystemResetWarning,0822.9,5.00,000.00,029.3,028.2,000.0,037.7,031.0,033.5,0000.0,0005.89,0016.52,0004.32
2024-06-17 04:37:00,SystemResetWarning,0823.1,4.99,000.00,029.3,028.4,000.0,037.7,031.1,033.2,0000.0,0006.02,0016.22,0004.37
2024-06-17 04:38:00,SystemResetWarning,0823.1,5.00,000.00,029.4,028.6,000.0,037.7,031.3,032.9,0000.0,0006.08,0016.02,0004.38
2024-06-17 04:39:00,SystemResetWarning,0822.8,5.01,000.00,029.5,028.8,000.0,037.7,031.3,032.6,0000.0,0006.12,0017.34,0004.40
2024-06-17 04:40:00,SystemResetWarning,0822.8,5.00,000.00,029.6,029.0,000.0,037.7,031.4,032.4,0000.0,0006.13,0017.70,0004.44
2024-06-17 04:41:00,SystemResetWarning,0822.8,5.00,000.00,029.6,029.1,000.0,037.8,031.5,032.2,0000.0,0006.17,0018.56,0004.47
2024-06-17 04:42:00,SystemResetWarning,0822.9,4.99,000.00,029.7,029.2,000.0,037.8,031.6,032.2,0000.0,0006.14,0018.94,0004.48
2024-06-17 04:43:00,SystemResetWarning,0823.0,5.00,000.00,029.8,029.4,000.0,037.8,031.7,032.4,0000.0,0006.16,0018.62,0004.50
2024-06-17 04:44:00,SystemResetWarning,0823.0,5.00,000.00,029.8,028.5,000.0,037.9,031.2,032.1,0000.0,0006.17,0018.24,0004.53
2024-06-17 04:45:00,SystemResetWarning,0822.7,5.01,000.00,029.4,026.6,000.0,037.9,030.3,032.5,0000.0,0006.25,0018.36,0004.57
2024-06-17 04:46:00,SystemResetWarning,0822.9,5.01,000.00,029.2,026.4,000.0,037.9,030.2,033.0,0000.0,0006.26,0018.69,0004.57
2024-06-17 04:47:00,SystemResetWarning,0822.8,5.00,000.00,029.1,026.7,000.0,037.8,030.3,033.2,0000.0,0006.20,0018.67,0004.55
2024-06-17 04:48:00,SystemResetWarning,0822.8,4.99,000.00,029.1,027.2,000.0,037.8,030.5,033.0,0000.0,0006.15,0018.67,0004.54
2024-06-17 04:49:00,SystemResetWarning,0822.8,5.01,000.00,029.2,027.5,000.0,037.7,030.7,032.8,0000.0,0006.16,0019.70,0004.55
2024-06-17 04:50:00,SystemResetWarning,0822.7,5.00,000.00,029.2,027.9,000.0,037.7,030.9,032.9,0000.0,0006.13,0018.20,0004.54
2024-06-17 04:51:00,SystemResetWarning,0822.9,4.99,000.00,029.3,028.2,000.0,037.7,031.0,032.9,0000.0,0006.12,0018.25,0004.54
2024-06-17 04:52:00,SystemResetWarning,0822.8,5.00,000.00,029.3,028.5,000.0,037.7,031.1,032.8,0000.0,0006.11,0017.20,0004.55
2024-06-17 04:53:00,SystemResetWarning,0822.9,5.00,000.00,029.4,028.7,000.0,037.7,031.2,032.8,0000.0,0006.12,0016.88,0004.55
2024-06-17 04:54:00,SystemResetWarning,0823.0,5.00,000.00,029.5,028.8,000.0,037.7,031.3,032.8,0000.0,0006.08,0017.23,0004.55
2024-06-17 04:55:00,SystemResetWarning,0823.2,5.00,000.00,029.6,029.0,000.0,037.7,031.4,032.7,0000.0,0006.07,0019.30,0004.55
2024-06-17 04:56:00,SystemResetWarning,0823.0,5.00,000.00,029.6,029.1,000.0,037.8,031.5,032.7,0000.0,0006.02,0019.21,0004.55
2024-06-17 04:57:00,SystemResetWarning,0822.9,4.99,000.00,029.7,029.2,000.0,037.8,031.6,032.6,0000.0,0006.00,0020.54,0004.56
2024-06-17 04:58:00,SystemResetWarning,0822.9,5.00,000.00,029.8,029.4,000.0,037.8,031.7,032.4,0000.0,0006.03,0021.05,0004.56
2024-06-17 04:59:00,SystemResetWarning,0822.9,5.00,000.00,029.8,029.5,000.0,037.9,031.8,032.3,0000.0,0006.02,0021.55,0004.56
